Regional Weather Roundup
Issued by NWS Green Bay, WI

Home | Current Version | Previous Version | Text Only | Print | Product List | Glossary On
Versions: 1 2 3 4 5 6 7 8 9 10 11 12 13 14 15 16 17 18 19 20 21 22 23 24 25 26 27 28 29 30 31 32 33 34 35 36 37 38 39 40 41 42 43 44 45 46 47 48 49 50
000
ASUS43 KGRB 192111
RWRGRB

NORTH-CENTRAL AND NORTHEAST WISCONSIN REGIONAL WEATHER ROUNDUP
NATIONAL WEATHER SERVICE GREEN BAY WI
400 PM CDT TUE SEP 19 2017

WIZ005-009-010>012-018-019-192200-
NORTH CENTRAL WISCONSIN

CITY           SKY/WX    TMP DP  RH WIND       PRES   REMARKS
IRONWOOD       CLOUDY    74  57  55 SE9       29.90F
MANITOWISH WTR MOSUNNY   71  57  60 SE8       29.93F
ARBOR VITAE    MOSUNNY   72  57  58 S9        29.93F
EAGLE RIVER    PTSUNNY   72  54  52 SE8       29.95S
LAND O LAKES   PTSUNNY   71  55  57 SE9       29.97F
RHINELANDER    SUNNY     74  55  51 SE12G22   29.95F
PHILLIPS       PTSUNNY   74  57  54 SE12      29.90F
ANTIGO         MOSUNNY   72  57  60 SE10      29.97S
TOMAHAWK         N/A     74  55  50 S6        29.94S
MERRILL        NOT AVBL
$$

WIZ013-073-192200-
NORTHEAST WISCONSIN

CITY           SKY/WX    TMP DP  RH WIND       PRES   REMARKS
IRON MOUNTAIN  MOSUNNY   71  56  58 SE8       29.97F
MARINETTE      SUNNY     70  59  68 SE8       29.98F
OCONTO         SUNNY     73  56  55 SE12      29.96F
$$

WIZ017-030-035>037-045-192200-
CENTRAL WISCONSIN

CITY           SKY/WX    TMP DP  RH WIND       PRES   REMARKS
MEDFORD        SUNNY     74  53  47 S12       29.91F
WAUSAU         SUNNY     75  56  51 SE12      29.92F
MOSINEE        MOSUNNY   75  55  50 SE12      29.94F
MARSHFIELD     SUNNY     77  51  40 SE14      29.90F
WISC RAPIDS    SUNNY     79  53  40 S12       29.92F
STEVENS POINT  SUNNY     74  56  51 SE9       29.93F
WAUPACA        SUNNY     79  57  46 E12       29.94S
SHAWANO        MOSUNNY   75  60  60 SE10      29.95F
CLINTONVILLE   MOSUNNY   75  57  53 SE8       29.94F
WAUTOMA        SUNNY     79  55  43 E7        29.92F
$$

WIZ038-039-048-051-192200-
FOX VALLEY

CITY           SKY/WX    TMP DP  RH WIND       PRES   REMARKS
NWS GREEN BAY  MOSUNNY   75  60  59 E8        29.95F
APPLETON       MOSUNNY   75  54  46 SE14      29.94F
OSHKOSH        SUNNY     75  61  61 E13       29.93F
FOND DU LAC    SUNNY     77  56  48 SE10G18   29.93F
$$

WIZ022-050-052-192200-
EAST CENTRAL WISCONSIN

CITY           SKY/WX    TMP DP  RH WIND       PRES   REMARKS
EPHRAIM        FAIR      70  53  55 E6        29.98F
WASHINGTON ISL NOT AVBL
STURGEON BAY   SUNNY     70  53  54 E8        29.98F
MANITOWOC      SUNNY     68  59  73 SE7       29.97F
SHEBOYGAN      SUNNY     70  61  73 E9        29.96F
$$

LMZ563-521-522-541>543-192200-
LAKESHORE

STATION/POSITION TIME  TEMP    WIND        PRES    VSBY  WAVE
                       AIR SEA DIR/SP/G                  HT/PER
                 (UTC) (F)     (DEG/KT/KT) (MB)    (MI)  (FT/S)
SHEBOYGAN LKSHOR 2100   65      80/  8/  8 1014.3F
KEWAUNEE LKSHORE 2042   66      40/  2/  5 1014.5F
NORTHPORT PIER   2040   66      80/  5/  6 1015.6S
N MID LAKE BUOY  2050   65 65   70/  8/ 10 1016.1F         1/ 3
S GREEN BAY BUOY 2100   70 67  110/ 10/ 12 1014.5
MENOMINEE LKSHOR 2042   69     110/  2/  3 1014.9F
$$



USA.gov is the U.S. government's official web portal to all federal, state and local government web resources and services.